Time,TemperatureF,DewpointF,PressureIn,WindDirection,WindDirectionDegrees,WindSpeedMPH,WindSpeedGustMPH,Humidity,HourlyPrecipIn,Conditions,Clouds,dailyrainin,SoftwareType,DateUTC
2013-10-08 00:00:00,62.0,62.0,29.92,North,1,0.0,0.0,100,0.00,,---,0.36,VWS V14.01,2013-10-08 04:00:00,
2013-10-08 00:01:00,62.0,62.0,29.92,North,1,0.0,0.0,100,0.00,,---,0.36,VWS V14.01,2013-10-08 04:01:00,
2013-10-08 00:05:00,62.0,62.0,29.92,North,1,0.0,0.0,100,0.00,,---,0.36,VWS V14.01,2013-10-08 04:05:00,
2013-10-08 00:06:00,62.0,62.0,29.92,North,1,0.0,0.0,100,0.00,,---,0.00,VWS V14.01,2013-10-08 04:06:00,
2013-10-08 00:10:00,62.0,62.0,29.92,North,1,0.0,0.0,100,0.00,,---,0.36,VWS V14.01,2013-10-08 04:10:00,
2013-10-08 00:11:00,62.0,62.0,29.92,North,1,0.0,0.0,100,0.00,,---,0.00,VWS V14.01,2013-10-08 04:11:00,
2013-10-08 00:15:00,62.0,62.0,29.93,North,1,0.0,0.0,100,0.00,,---,0.36,VWS V14.01,2013-10-08 04:15:00,
2013-10-08 00:16:00,62.0,62.0,29.93,North,1,0.0,0.0,100,0.00,,---,0.00,VWS V14.01,2013-10-08 04:16:00,
2013-10-08 00:20:00,62.0,62.0,29.93,North,1,0.0,0.0,100,0.00,,---,0.36,VWS V14.01,2013-10-08 04:20:00,
2013-10-08 00:21:00,62.0,62.0,29.93,North,1,0.0,0.0,100,0.00,,---,0.00,VWS V14.01,2013-10-08 04:21:00,
2013-10-08 00:25:00,62.0,62.0,29.93,North,1,0.0,0.0,100,0.00,,---,0.36,VWS V14.01,2013-10-08 04:25:00,
2013-10-08 00:26:00,62.0,62.0,29.93,North,1,0.0,0.0,100,0.00,,---,0.00,VWS V14.01,2013-10-08 04:26:00,
2013-10-08 00:30:00,62.0,62.0,29.92,North,1,0.0,0.0,100,0.00,,---,0.36,VWS V14.01,2013-10-08 04:30:00,
2013-10-08 00:31:00,62.0,62.0,29.92,North,1,0.0,0.0,100,0.00,,---,0.00,VWS V14.01,2013-10-08 04:31:00,
2013-10-08 00:35:00,62.0,62.0,29.92,North,1,0.0,0.0,100,0.00,,---,0.36,VWS V14.01,2013-10-08 04:35:00,
2013-10-08 00:36:00,62.0,62.0,29.92,North,1,0.0,0.0,100,0.00,,---,0.00,VWS V14.01,2013-10-08 04:36:00,
2013-10-08 00:40:00,62.0,62.0,29.92,North,1,0.0,0.0,100,0.00,,---,0.36,VWS V14.01,2013-10-08 04:40:00,
2013-10-08 00:41:00,62.0,62.0,29.92,North,1,0.0,0.0,100,0.00,,---,0.00,VWS V14.01,2013-10-08 04:41:00,
2013-10-08 00:45:00,62.0,62.0,29.92,North,1,0.0,0.0,100,0.00,,---,0.36,VWS V14.01,2013-10-08 04:45:00,
2013-10-08 00:46:00,62.0,62.0,29.91,North,1,0.0,0.0,100,0.00,,---,0.00,VWS V14.01,2013-10-08 04:46:00,
2013-10-08 00:50:00,62.0,62.0,29.92,North,1,0.0,0.0,100,0.00,,---,0.36,VWS V14.01,2013-10-08 04:50:00,
2013-10-08 00:51:00,62.0,62.0,29.91,North,1,0.0,0.0,100,0.00,,---,0.00,VWS V14.01,2013-10-08 04:51:00,
2013-10-08 00:55:00,62.0,62.0,29.92,North,1,0.0,0.0,100,0.00,,---,0.36,VWS V14.01,2013-10-08 04:55:00,
2013-10-08 00:56:00,62.0,62.0,29.91,North,1,0.0,0.0,100,0.00,,---,0.00,VWS V14.01,2013-10-08 04:56:00,
2013-10-08 01:00:00,62.0,62.0,29.92,North,1,0.0,0.0,100,0.00,,---,0.36,VWS V14.01,2013-10-08 05:00:00,
2013-10-08 01:01:00,62.0,62.0,29.92,North,1,0.0,0.0,100,0.00,,---,0.00,VWS V14.01,2013-10-08 05:01:00,
2013-10-08 01:05:00,62.0,62.0,29.92,North,1,0.0,0.0,100,0.00,,---,0.00,VWS V14.01,2013-10-08 05:05:00,
2013-10-08 01:06:00,62.0,62.0,29.92,North,1,0.0,0.0,100,0.00,,---,0.00,VWS V14.01,2013-10-08 05:06:00,
2013-10-08 01:10:00,62.0,62.0,29.92,North,1,0.0,0.0,100,0.00,,---,0.00,VWS V14.01,2013-10-08 05:10:00,
2013-10-08 01:11:00,62.0,62.0,29.92,NNW,335,0.0,2.0,100,0.00,,---,0.00,VWS V14.01,2013-10-08 05:11:00,
2013-10-08 01:15:00,62.0,62.0,29.93,North,1,0.0,0.0,100,0.00,,---,0.00,VWS V14.01,2013-10-08 05:15:00,
2013-10-08 01:16:00,62.0,62.0,29.92,NNW,335,0.0,0.0,100,0.00,,---,0.00,VWS V14.01,2013-10-08 05:16:00,
2013-10-08 01:20:00,62.0,62.0,29.93,North,1,0.0,0.0,100,0.00,,---,0.00,VWS V14.01,2013-10-08 05:20:00,
2013-10-08 01:21:00,59.8,59.8,29.92,NW,325,2.0,2.0,100,0.00,,---,0.00,VWS V14.01,2013-10-08 05:21:00,
2013-10-08 01:25:00,62.0,62.0,29.93,North,1,0.0,0.0,100,0.00,,---,0.00,VWS V14.01,2013-10-08 05:25:00,
2013-10-08 01:26:00,59.8,59.8,29.92,NW,325,2.0,2.0,100,0.00,,---,0.00,VWS V14.01,2013-10-08 05:26:00,
2013-10-08 01:30:00,62.0,62.0,29.92,North,1,0.0,0.0,100,0.00,,---,0.00,VWS V14.01,2013-10-08 05:30:00,
2013-10-08 01:31:00,59.8,59.8,29.93,NW,325,2.0,2.0,100,0.00,,---,0.00,VWS V14.01,2013-10-08 05:31:00,
2013-10-08 01:35:00,62.0,62.0,29.92,North,1,0.0,0.0,100,0.00,,---,0.00,VWS V14.01,2013-10-08 05:35:00,
2013-10-08 01:36:00,59.8,59.8,29.93,North,357,0.0,2.0,100,0.00,,---,0.00,VWS V14.01,2013-10-08 05:36:00,
2013-10-08 01:40:00,62.0,62.0,29.92,North,1,0.0,0.0,100,0.00,,---,0.00,VWS V14.01,2013-10-08 05:40:00,
2013-10-08 01:41:00,59.8,59.8,29.93,North,357,0.0,0.0,100,0.00,,---,0.00,VWS V14.01,2013-10-08 05:41:00,
2013-10-08 01:45:00,62.0,62.0,29.91,North,1,0.0,0.0,100,0.00,,---,0.00,VWS V14.01,2013-10-08 05:45:00,
2013-10-08 01:46:00,59.8,59.8,29.93,North,352,0.0,0.0,100,0.00,,---,0.00,VWS V14.01,2013-10-08 05:46:00,
2013-10-08 01:50:00,62.0,62.0,29.91,North,1,0.0,0.0,100,0.00,,---,0.00,VWS V14.01,2013-10-08 05:50:00,
2013-10-08 01:51:00,59.8,59.8,29.93,NNW,339,0.0,0.0,100,0.00,,---,0.00,VWS V14.01,2013-10-08 05:51:00,
2013-10-08 01:55:00,62.0,62.0,29.91,North,1,0.0,0.0,100,0.00,,---,0.00,VWS V14.01,2013-10-08 05:55:00,
2013-10-08 01:56:00,59.8,59.8,29.93,North,4,1.0,1.0,100,0.00,,---,0.00,VWS V14.01,2013-10-08 05:56:00,
2013-10-08 02:00:00,62.0,62.0,29.92,North,1,0.0,0.0,100,0.00,,---,0.00,VWS V14.01,2013-10-08 06:00:00,
2013-10-08 02:01:00,59.8,59.8,29.94,WNW,287,1.0,1.0,100,0.00,,---,0.00,VWS V14.01,2013-10-08 06:01:00,
2013-10-08 02:05:00,62.0,62.0,29.92,North,1,0.0,0.0,100,0.00,,---,0.00,VWS V14.01,2013-10-08 06:05:00,
2013-10-08 02:06:00,59.8,59.8,29.94,WSW,251,0.0,1.0,100,0.00,,---,0.00,VWS V14.01,2013-10-08 06:06:00,
2013-10-08 02:10:00,62.0,62.0,29.92,NNW,335,0.0,2.0,100,0.00,,---,0.00,VWS V14.01,2013-10-08 06:10:00,
2013-10-08 02:11:00,60.1,60.1,29.94,NNW,344,1.0,1.0,100,0.00,,---,0.00,VWS V14.01,2013-10-08 06:11:00,
2013-10-08 02:15:00,62.0,62.0,29.92,NNW,335,0.0,0.0,100,0.00,,---,0.00,VWS V14.01,2013-10-08 06:15:00,
2013-10-08 02:16:00,60.2,60.2,29.95,North,0,0.0,1.0,100,0.00,,---,0.00,VWS V14.01,2013-10-08 06:16:00,
2013-10-08 02:20:00,59.8,59.8,29.92,NW,325,2.0,2.0,100,0.00,,---,0.00,VWS V14.01,2013-10-08 06:20:00,
2013-10-08 02:21:00,60.2,60.2,29.95,NNW,343,0.0,0.0,100,0.00,,---,0.00,VWS V14.01,2013-10-08 06:21:00,
2013-10-08 02:25:00,59.8,59.8,29.92,NW,325,2.0,2.0,100,0.00,,---,0.00,VWS V14.01,2013-10-08 06:25:00,
2013-10-08 02:26:00,60.2,60.2,29.95,NNW,343,0.0,0.0,100,0.00,,---,0.00,VWS V14.01,2013-10-08 06:26:00,
2013-10-08 02:30:00,59.8,59.8,29.93,NW,325,2.0,2.0,100,0.00,,---,0.00,VWS V14.01,2013-10-08 06:30:00,
2013-10-08 02:31:00,60.2,60.2,29.96,NNW,343,0.0,0.0,100,0.00,,---,0.00,VWS V14.01,2013-10-08 06:31:00,
2013-10-08 02:35:00,59.8,59.8,29.93,North,357,0.0,2.0,100,0.00,,---,0.00,VWS V14.01,2013-10-08 06:35:00,
2013-10-08 02:36:00,60.7,60.7,29.96,East,85,0.0,0.0,100,0.00,,---,0.00,VWS V14.01,2013-10-08 06:36:00,
2013-10-08 02:40:00,59.8,59.8,29.93,North,357,0.0,0.0,100,0.00,,---,0.00,VWS V14.01,2013-10-08 06:40:00,
2013-10-08 02:41:00,60.4,60.4,29.96,WNW,292,3.0,3.0,100,0.00,,---,0.00,VWS V14.01,2013-10-08 06:41:00,
2013-10-08 02:45:00,59.8,59.8,29.93,North,352,0.0,0.0,100,0.00,,---,0.00,VWS V14.01,2013-10-08 06:45:00,
2013-10-08 02:46:00,60.2,60.2,29.98,NE,47,0.0,2.0,100,0.00,,---,0.00,VWS V14.01,2013-10-08 06:46:00,
2013-10-08 02:50:00,59.8,59.8,29.93,NNW,339,0.0,0.0,100,0.00,,---,0.00,VWS V14.01,2013-10-08 06:50:00,
2013-10-08 02:51:00,59.9,59.9,29.98,NNE,14,2.0,4.0,100,0.00,,---,0.00,VWS V14.01,2013-10-08 06:51:00,
2013-10-08 02:55:00,59.8,59.8,29.93,North,4,1.0,1.0,100,0.00,,---,0.00,VWS V14.01,2013-10-08 06:55:00,
2013-10-08 02:56:00,59.9,59.9,29.98,NNW,329,0.0,1.0,100,0.00,,---,0.00,VWS V14.01,2013-10-08 06:56:00,
2013-10-08 03:00:00,59.8,59.8,29.94,WNW,287,1.0,1.0,100,0.00,,---,0.00,VWS V14.01,2013-10-08 07:00:00,
2013-10-08 03:01:00,59.9,59.9,29.98,NNW,329,0.0,0.0,100,0.00,,---,0.00,VWS V14.01,2013-10-08 07:01:00,
2013-10-08 03:05:00,59.8,59.8,29.94,WSW,251,0.0,1.0,100,0.00,,---,0.00,VWS V14.01,2013-10-08 07:05:00,
2013-10-08 03:06:00,59.5,59.5,29.98,ESE,121,0.0,0.0,100,0.00,,---,0.00,VWS V14.01,2013-10-08 07:06:00,
2013-10-08 03:10:00,60.1,60.1,29.94,NNW,344,1.0,1.0,100,0.00,,---,0.00,VWS V14.01,2013-10-08 07:10:00,
2013-10-08 03:11:00,59.3,58.2,29.98,NNW,332,5.0,5.0,96,0.00,,---,0.00,VWS V14.01,2013-10-08 07:11:00,
2013-10-08 03:15:00,60.2,60.2,29.95,North,0,0.0,1.0,100,0.00,,---,0.00,VWS V14.01,2013-10-08 07:15:00,
2013-10-08 03:16:00,59.3,58.2,29.99,NW,313,1.0,5.0,96,0.00,,---,0.00,VWS V14.01,2013-10-08 07:16:00,
2013-10-08 03:20:00,60.2,60.2,29.95,NNW,343,0.0,0.0,100,0.00,,---,0.00,VWS V14.01,2013-10-08 07:20:00,
2013-10-08 03:21:00,59.3,58.2,29.99,NW,323,0.0,12.0,96,0.00,,---,0.00,VWS V14.01,2013-10-08 07:21:00,
2013-10-08 03:25:00,60.2,60.2,29.95,NNW,343,0.0,0.0,100,0.00,,---,0.00,VWS V14.01,2013-10-08 07:25:00,
2013-10-08 03:26:00,59.3,54.2,29.99,NNE,25,6.0,6.0,83,0.00,,---,0.00,VWS V14.01,2013-10-08 07:26:00,
2013-10-08 03:30:00,60.2,60.2,29.96,NNW,343,0.0,0.0,100,0.00,,---,0.00,VWS V14.01,2013-10-08 07:30:00,
2013-10-08 03:31:00,59.3,54.2,29.99,WNW,289,2.0,6.0,83,0.00,,---,0.00,VWS V14.01,2013-10-08 07:31:00,
2013-10-08 03:35:00,60.7,60.7,29.96,North,352,0.0,0.0,100,0.00,,---,0.00,VWS V14.01,2013-10-08 07:35:00,
2013-10-08 03:36:00,59.3,54.2,29.99,South,181,2.0,5.0,83,0.00,,---,0.00,VWS V14.01,2013-10-08 07:36:00,
2013-10-08 03:40:00,60.4,60.4,29.96,NW,313,2.0,3.0,100,0.00,,---,0.00,VWS V14.01,2013-10-08 07:40:00,
2013-10-08 03:41:00,59.3,54.2,29.99,West,280,0.0,3.0,83,0.00,,---,0.00,VWS V14.01,2013-10-08 07:41:00,
2013-10-08 03:45:00,60.2,60.2,29.98,SSW,213,0.0,2.0,100,0.00,,---,0.00,VWS V14.01,2013-10-08 07:45:00,
2013-10-08 03:46:00,59.3,54.2,29.99,NW,323,0.0,6.0,83,0.00,,---,0.00,VWS V14.01,2013-10-08 07:46:00,
2013-10-08 03:50:00,59.9,59.9,29.98,NW,318,1.0,4.0,100,0.00,,---,0.00,VWS V14.01,2013-10-08 07:50:00,
2013-10-08 03:51:00,59.3,54.2,29.99,NW,319,1.0,3.0,83,0.00,,---,0.00,VWS V14.01,2013-10-08 07:51:00,
2013-10-08 03:55:00,59.9,59.9,29.98,NNW,329,0.0,1.0,100,0.00,,---,0.00,VWS V14.01,2013-10-08 07:55:00,
2013-10-08 03:56:00,59.3,54.2,29.99,North,11,0.0,2.0,83,0.00,,---,0.00,VWS V14.01,2013-10-08 07:56:00,
2013-10-08 04:00:00,59.9,59.9,29.98,North,359,0.0,0.0,100,0.00,,---,0.00,VWS V14.01,2013-10-08 08:00:00,
2013-10-08 04:01:00,59.3,54.2,29.99,WNW,284,0.0,3.0,83,0.00,,---,0.00,VWS V14.01,2013-10-08 08:01:00,
2013-10-08 04:05:00,59.3,59.3,29.98,NNW,339,0.0,1.0,100,0.00,,---,0.00,VWS V14.01,2013-10-08 08:05:00,
2013-10-08 04:06:00,59.3,54.2,29.99,NE,51,0.0,1.0,83,0.00,,---,0.00,VWS V14.01,2013-10-08 08:06:00,
2013-10-08 04:10:00,59.3,58.2,29.98,NNW,332,5.0,5.0,96,0.00,,---,0.00,VWS V14.01,2013-10-08 08:10:00,
2013-10-08 04:11:00,59.3,54.2,29.99,NE,51,0.0,0.0,83,0.00,,---,0.00,VWS V14.01,2013-10-08 08:11:00,
2013-10-08 04:15:00,59.3,58.2,29.99,NNW,344,0.0,5.0,96,0.00,,---,0.00,VWS V14.01,2013-10-08 08:15:00,
2013-10-08 04:16:00,59.3,50.7,29.99,ENE,78,0.0,0.0,73,0.00,,---,0.00,VWS V14.01,2013-10-08 08:16:00,
2013-10-08 04:20:00,59.3,58.2,29.99,NW,323,0.0,12.0,96,0.00,,---,0.00,VWS V14.01,2013-10-08 08:20:00,
2013-10-08 04:21:00,59.3,50.7,29.99,NW,306,2.0,2.0,73,0.00,,---,0.00,VWS V14.01,2013-10-08 08:21:00,
2013-10-08 04:25:00,59.3,54.2,29.99,NNE,25,6.0,6.0,83,0.00,,---,0.00,VWS V14.01,2013-10-08 08:25:00,
2013-10-08 04:26:00,59.3,50.7,29.99,NW,319,0.0,5.0,73,0.00,,---,0.00,VWS V14.01,2013-10-08 08:26:00,
2013-10-08 04:30:00,59.3,54.2,29.99,WNW,289,2.0,6.0,83,0.00,,---,0.00,VWS V14.01,2013-10-08 08:30:00,
2013-10-08 04:31:00,59.3,49.5,29.99,WNW,301,0.0,1.0,70,0.00,,---,0.00,VWS V14.01,2013-10-08 08:31:00,
2013-10-08 04:35:00,59.3,54.2,29.99,South,181,2.0,5.0,83,0.00,,---,0.00,VWS V14.01,2013-10-08 08:35:00,
2013-10-08 04:36:00,59.3,49.5,29.99,North,0,0.0,0.0,70,0.00,,---,0.00,VWS V14.01,2013-10-08 08:36:00,
2013-10-08 04:40:00,59.3,49.5,29.99,NW,320,1.0,6.0,70,0.00,,---,0.00,VWS V14.01,2013-10-08 08:40:00,
2013-10-08 04:45:00,59.3,54.2,29.99,ENE,61,0.0,6.0,83,0.00,,---,0.00,VWS V14.01,2013-10-08 08:45:00,
2013-10-08 04:46:00,59.2,48.7,30.00,NNW,333,2.0,7.0,68,0.00,,---,0.00,VWS V14.01,2013-10-08 08:46:00,
2013-10-08 04:50:00,59.3,54.2,29.99,NW,319,1.0,3.0,83,0.00,,---,0.00,VWS V14.01,2013-10-08 08:50:00,
2013-10-08 04:51:00,59.2,48.7,30.00,ENE,78,2.0,2.0,68,0.00,,---,0.00,VWS V14.01,2013-10-08 08:51:00,
2013-10-08 04:55:00,59.2,48.7,30.00,NW,316,2.0,5.0,68,0.00,,---,0.00,VWS V14.01,2013-10-08 08:55:00,
2013-10-08 05:00:00,59.2,48.7,30.00,NE,40,6.0,6.0,68,0.00,,---,0.00,VWS V14.01,2013-10-08 09:00:00,
2013-10-08 05:05:00,59.0,48.1,30.00,ESE,119,2.0,3.0,67,0.00,,---,0.00,VWS V14.01,2013-10-08 09:05:00,
2013-10-08 05:10:00,59.0,46.8,30.00,North,0,0.0,2.0,64,0.00,,---,0.00,VWS V14.01,2013-10-08 09:10:00,
2013-10-08 05:15:00,59.0,46.8,30.02,NW,312,0.0,0.0,64,0.00,,---,0.00,VWS V14.01,2013-10-08 09:15:00,
2013-10-08 05:20:00,59.0,46.8,30.02,North,359,0.0,0.0,64,0.00,,---,0.00,VWS V14.01,2013-10-08 09:20:00,
2013-10-08 05:25:00,59.0,46.8,30.02,SSW,205,2.0,5.0,64,0.00,,---,0.00,VWS V14.01,2013-10-08 09:25:00,
2013-10-08 05:30:00,59.0,46.8,30.02,NW,318,1.0,2.0,64,0.00,,---,0.00,VWS V14.01,2013-10-08 09:30:00,
2013-10-08 05:35:00,58.9,46.8,30.02,NNW,337,0.0,7.0,64,0.00,,---,0.00,VWS V14.01,2013-10-08 09:35:00,
2013-10-08 05:40:00,59.2,49.4,29.99,ESE,104,0.0,6.0,70,0.00,,---,0.00,VWS V14.01,2013-10-08 09:40:00,
2013-10-08 05:41:00,58.9,46.8,30.02,NW,313,6.0,6.0,64,0.00,,---,0.00,VWS V14.01,2013-10-08 09:41:00,
2013-10-08 05:45:00,59.2,48.7,30.00,WNW,289,2.0,7.0,68,0.00,,---,0.00,VWS V14.01,2013-10-08 09:45:00,
2013-10-08 05:46:00,58.9,46.8,30.03,NW,322,1.0,7.0,64,0.00,,---,0.00,VWS V14.01,2013-10-08 09:46:00,
2013-10-08 05:50:00,59.2,48.7,30.00,ENE,78,2.0,2.0,68,0.00,,---,0.00,VWS V14.01,2013-10-08 09:50:00,
2013-10-08 05:51:00,58.9,46.3,30.03,NW,323,0.0,1.0,63,0.00,,---,0.00,VWS V14.01,2013-10-08 09:51:00,
2013-10-08 05:55:00,58.9,46.3,30.03,West,263,0.0,1.0,63,0.00,,---,0.00,VWS V14.01,2013-10-08 09:55:00,
2013-10-08 06:00:00,58.9,45.9,30.04,NNE,13,0.0,2.0,62,0.00,,---,0.00,VWS V14.01,2013-10-08 10:00:00,
2013-10-08 06:05:00,58.9,45.9,30.04,NW,305,0.0,10.0,62,0.00,,---,0.00,VWS V14.01,2013-10-08 10:05:00,
2013-10-08 06:10:00,58.9,45.9,30.04,ENE,66,0.0,2.0,62,0.00,,---,0.00,VWS V14.01,2013-10-08 10:10:00,
2013-10-08 06:15:00,58.9,45.9,30.03,ENE,66,0.0,0.0,62,0.00,,---,0.00,VWS V14.01,2013-10-08 10:15:00,
2013-10-08 06:20:00,58.9,45.9,30.03,ENE,66,0.0,0.0,62,0.00,,---,0.00,VWS V14.01,2013-10-08 10:20:00,
2013-10-08 06:25:00,58.9,45.9,30.03,ENE,66,0.0,0.0,62,0.00,,---,0.00,VWS V14.01,2013-10-08 10:25:00,
2013-10-08 06:30:00,58.9,45.9,30.03,ENE,66,0.0,0.0,62,0.00,,---,0.00,VWS V14.01,2013-10-08 10:30:00,
2013-10-08 06:35:00,58.9,45.9,30.03,ENE,66,0.0,0.0,62,0.00,,---,0.00,VWS V14.01,2013-10-08 10:35:00,
2013-10-08 06:40:00,58.9,45.5,30.03,NW,319,2.0,2.0,61,0.00,,---,0.00,VWS V14.01,2013-10-08 10:40:00,
2013-10-08 06:45:00,58.6,45.2,30.05,NNE,27,5.0,5.0,61,0.00,,---,0.00,VWS V14.01,2013-10-08 10:45:00,
2013-10-08 06:50:00,58.7,47.0,30.05,NNW,346,0.0,7.0,65,0.00,,---,0.00,VWS V14.01,2013-10-08 10:50:00,
2013-10-08 06:55:00,58.7,47.0,30.05,North,0,0.0,0.0,65,0.00,,---,0.00,VWS V14.01,2013-10-08 10:55:00,
2013-10-08 07:00:00,58.7,46.2,30.05,NW,319,5.0,5.0,63,0.00,,---,0.00,VWS V14.01,2013-10-08 11:00:00,
2013-10-08 07:05:00,58.6,46.1,30.05,North,7,0.0,5.0,63,0.00,,---,0.00,VWS V14.01,2013-10-08 11:05:00,
2013-10-08 07:10:00,58.4,45.9,30.05,NE,41,0.0,5.0,63,0.00,,---,0.00,VWS V14.01,2013-10-08 11:10:00,
2013-10-08 07:15:00,58.4,45.9,30.05,WNW,295,3.0,6.0,63,0.00,,---,0.00,VWS V14.01,2013-10-08 11:15:00,
2013-10-08 07:20:00,58.4,45.9,30.05,NNW,346,0.0,3.0,63,0.00,,---,0.00,VWS V14.01,2013-10-08 11:20:00,
2013-10-08 07:25:00,58.4,46.3,30.05,NW,312,0.0,3.0,64,0.00,,---,0.00,VWS V14.01,2013-10-08 11:25:00,
2013-10-08 07:30:00,58.4,46.3,30.06,NW,316,0.0,2.0,64,0.00,,---,0.00,VWS V14.01,2013-10-08 11:30:00,
2013-10-08 07:35:00,58.4,45.5,30.06,WNW,292,5.0,5.0,62,0.00,,---,0.00,VWS V14.01,2013-10-08 11:35:00,
2013-10-08 07:40:00,58.3,44.9,30.06,WNW,287,5.0,5.0,61,0.00,,---,0.00,VWS V14.01,2013-10-08 11:40:00,
2013-10-08 07:45:00,58.4,45.0,30.06,NE,54,0.0,6.0,61,0.00,,---,0.00,VWS V14.01,2013-10-08 11:45:00,
2013-10-08 07:50:00,58.4,45.0,30.06,NW,325,3.0,5.0,61,0.00,,---,0.00,VWS V14.01,2013-10-08 11:50:00,
2013-10-08 07:55:00,58.3,45.3,30.06,North,10,3.0,3.0,62,0.00,,---,0.00,VWS V14.01,2013-10-08 11:55:00,
2013-10-08 08:00:00,58.3,45.3,30.07,NNE,21,0.0,0.0,62,0.00,,---,0.00,VWS V14.01,2013-10-08 12:00:00,
2013-10-08 08:05:00,58.3,45.3,30.07,North,0,0.0,0.0,62,0.00,,---,0.00,VWS V14.01,2013-10-08 12:05:00,
2013-10-08 08:10:00,58.1,45.2,30.07,North,356,0.0,0.0,62,0.00,,---,0.00,VWS V14.01,2013-10-08 12:10:00,
2013-10-08 08:15:00,58.1,45.2,30.08,ESE,119,0.0,2.0,62,0.00,,---,0.00,VWS V14.01,2013-10-08 12:15:00,
2013-10-08 08:20:00,58.1,45.2,30.08,East,92,3.0,3.0,62,0.00,,---,0.00,VWS V14.01,2013-10-08 12:20:00,
2013-10-08 08:25:00,58.1,45.2,30.08,NNW,343,0.0,0.0,62,0.00,,---,0.00,VWS V14.01,2013-10-08 12:25:00,
2013-10-08 08:30:00,58.1,46.0,30.08,NNW,343,0.0,7.0,64,0.00,,---,0.00,VWS V14.01,2013-10-08 12:30:00,
2013-10-08 08:35:00,58.1,46.0,30.08,East,89,0.0,0.0,64,0.00,,---,0.00,VWS V14.01,2013-10-08 12:35:00,
2013-10-08 08:40:00,58.1,46.0,30.08,North,357,0.0,0.0,64,0.00,,---,0.00,VWS V14.01,2013-10-08 12:40:00,
2013-10-08 08:45:00,58.1,46.0,30.08,NE,52,0.0,0.0,64,0.00,,---,0.00,VWS V14.01,2013-10-08 12:45:00,
2013-10-08 08:50:00,58.1,46.0,30.08,NE,45,0.0,8.0,64,0.00,,---,0.00,VWS V14.01,2013-10-08 12:50:00,
2013-10-08 08:55:00,58.1,46.0,30.08,ENE,58,0.0,0.0,64,0.00,,---,0.00,VWS V14.01,2013-10-08 12:55:00,
2013-10-08 09:00:00,58.1,46.0,30.10,ESE,106,0.0,2.0,64,0.00,,---,0.00,VWS V14.01,2013-10-08 13:00:00,
2013-10-08 09:05:00,58.1,46.4,30.10,ENE,69,13.0,13.0,65,0.00,,---,0.00,VWS V14.01,2013-10-08 13:05:00,
2013-10-08 09:10:00,58.1,46.4,30.10,NE,45,0.0,7.0,65,0.00,,---,0.00,VWS V14.01,2013-10-08 13:10:00,
2013-10-08 09:15:00,58.1,46.4,30.10,NNW,339,1.0,1.0,65,0.00,,---,0.00,VWS V14.01,2013-10-08 13:15:00,
2013-10-08 09:20:00,58.1,46.4,30.10,North,10,0.0,2.0,65,0.00,,---,0.00,VWS V14.01,2013-10-08 13:20:00,
2013-10-08 09:25:00,58.1,46.4,30.10,West,265,0.0,5.0,65,0.00,,---,0.00,VWS V14.01,2013-10-08 13:25:00,
2013-10-08 09:30:00,58.1,46.4,30.10,NNW,337,1.0,10.0,65,0.00,,---,0.00,VWS V14.01,2013-10-08 13:30:00,
2013-10-08 09:35:00,58.0,46.3,30.11,West,281,4.0,5.0,65,0.00,,---,0.00,VWS V14.01,2013-10-08 13:35:00,
2013-10-08 09:40:00,58.0,46.3,30.11,WNW,291,0.0,0.0,65,0.00,,---,0.00,VWS V14.01,2013-10-08 13:40:00,
2013-10-08 09:45:00,58.0,46.7,30.11,ENE,61,0.0,1.0,66,0.00,,---,0.00,VWS V14.01,2013-10-08 13:45:00,
2013-10-08 09:50:00,58.0,46.7,30.11,West,264,0.0,0.0,66,0.00,,---,0.00,VWS V14.01,2013-10-08 13:50:00,
2013-10-08 09:55:00,58.1,46.8,30.11,North,0,0.0,0.0,66,0.00,,---,0.00,VWS V14.01,2013-10-08 13:55:00,
2013-10-08 10:00:00,58.1,46.8,30.11,NW,320,0.0,1.0,66,0.00,,---,0.00,VWS V14.01,2013-10-08 14:00:00,
2013-10-08 10:05:00,58.1,46.8,30.11,ESE,120,0.0,0.0,66,0.00,,---,0.00,VWS V14.01,2013-10-08 14:05:00,
2013-10-08 10:10:00,58.1,46.8,30.11,NNE,17,1.0,2.0,66,0.00,,---,0.00,VWS V14.01,2013-10-08 14:10:00,
2013-10-08 10:15:00,58.1,46.8,30.12,NNW,332,0.0,1.0,66,0.00,,---,0.00,VWS V14.01,2013-10-08 14:15:00,
2013-10-08 10:20:00,58.1,47.2,30.12,NNW,343,0.0,3.0,67,0.00,,---,0.00,VWS V14.01,2013-10-08 14:20:00,
2013-10-08 10:25:00,58.1,47.2,30.12,NW,311,0.0,0.0,67,0.00,,---,0.00,VWS V14.01,2013-10-08 14:25:00,
2013-10-08 10:30:00,58.1,47.2,30.12,NE,48,0.0,2.0,67,0.00,,---,0.00,VWS V14.01,2013-10-08 14:30:00,
2013-10-08 10:35:00,58.3,47.4,30.12,NNW,333,0.0,0.0,67,0.00,,---,0.00,VWS V14.01,2013-10-08 14:35:00,
2013-10-08 10:40:00,58.3,46.6,30.12,NNE,14,0.0,0.0,65,0.00,,---,0.00,VWS V14.01,2013-10-08 14:40:00,
2013-10-08 10:45:00,58.3,46.6,30.13,North,354,0.0,0.0,65,0.00,,---,0.00,VWS V14.01,2013-10-08 14:45:00,
2013-10-08 10:50:00,58.3,46.6,30.13,NE,54,0.0,0.0,65,0.00,,---,0.00,VWS V14.01,2013-10-08 14:50:00,
2013-10-08 10:55:00,58.6,46.9,30.13,NNE,31,0.0,0.0,65,0.00,,---,0.00,VWS V14.01,2013-10-08 14:55:00,
2013-10-08 11:00:00,58.7,47.4,30.13,ENE,58,5.0,5.0,66,0.00,,---,0.00,VWS V14.01,2013-10-08 15:00:00,
2013-10-08 11:05:00,58.7,47.4,30.13,NNW,333,0.0,0.0,66,0.00,,---,0.00,VWS V14.01,2013-10-08 15:05:00,
2013-10-08 11:10:00,58.9,47.6,30.13,SE,137,0.0,5.0,66,0.00,,---,0.00,VWS V14.01,2013-10-08 15:10:00,
2013-10-08 11:15:00,58.9,46.8,30.12,ESE,106,2.0,3.0,64,0.00,,---,0.00,VWS V14.01,2013-10-08 15:15:00,
2013-10-08 11:20:00,59.0,46.8,30.12,NNW,339,0.0,5.0,64,0.00,,---,0.00,VWS V14.01,2013-10-08 15:20:00,
2013-10-08 11:25:00,59.0,46.8,30.12,WNW,301,0.0,0.0,64,0.00,,---,0.00,VWS V14.01,2013-10-08 15:25:00,
2013-10-08 11:30:00,59.0,46.8,30.12,NW,312,3.0,3.0,64,0.00,,---,0.00,VWS V14.01,2013-10-08 15:30:00,
2013-10-08 11:35:00,59.0,46.8,30.13,NW,306,0.0,3.0,64,0.00,,---,0.00,VWS V14.01,2013-10-08 15:35:00,
2013-10-08 11:40:00,59.0,46.8,30.13,NE,56,2.0,2.0,64,0.00,,---,0.00,VWS V14.01,2013-10-08 15:40:00,
2013-10-08 11:45:00,59.2,47.0,30.13,NE,47,0.0,2.0,64,0.00,,---,0.00,VWS V14.01,2013-10-08 15:45:00,
2013-10-08 11:50:00,59.2,47.0,30.12,WNW,301,1.0,3.0,64,0.00,,---,0.00,VWS V14.01,2013-10-08 15:50:00,
2013-10-08 11:55:00,59.2,47.0,30.12,NNW,328,0.0,1.0,64,0.00,,---,0.00,VWS V14.01,2013-10-08 15:55:00,
2013-10-08 12:00:00,59.2,47.0,30.12,NW,313,0.0,0.0,64,0.00,,---,0.00,VWS V14.01,2013-10-08 16:00:00,
2013-10-08 12:05:00,59.2,47.0,30.12,North,11,0.0,2.0,64,0.00,,---,0.00,VWS V14.01,2013-10-08 16:05:00,
2013-10-08 12:10:00,59.2,47.0,30.12,NNE,27,0.0,0.0,64,0.00,,---,0.00,VWS V14.01,2013-10-08 16:10:00,
2013-10-08 12:15:00,59.0,46.8,30.12,WNW,285,3.0,3.0,64,0.00,,---,0.00,VWS V14.01,2013-10-08 16:15:00,
2013-10-08 12:20:00,59.0,46.8,30.12,North,359,0.0,3.0,64,0.00,,---,0.00,VWS V14.01,2013-10-08 16:20:00,
2013-10-08 12:25:00,58.9,46.8,30.12,East,90,5.0,5.0,64,0.00,,---,0.00,VWS V14.01,2013-10-08 16:25:00,
2013-10-08 12:30:00,58.9,46.8,30.12,NNE,14,0.0,0.0,64,0.00,,---,0.00,VWS V14.01,2013-10-08 16:30:00,
2013-10-08 12:35:00,58.9,46.8,30.12,NW,313,2.0,2.0,64,0.00,,---,0.00,VWS V14.01,2013-10-08 16:35:00,
2013-10-08 12:40:00,59.0,46.8,30.12,SE,138,0.0,2.0,64,0.00,,---,0.00,VWS V14.01,2013-10-08 16:40:00,
2013-10-08 12:45:00,59.0,46.8,30.12,North,353,0.0,0.0,64,0.00,,---,0.00,VWS V14.01,2013-10-08 16:45:00,
2013-10-08 12:50:00,59.0,46.8,30.13,North,353,0.0,0.0,64,0.00,,---,0.00,VWS V14.01,2013-10-08 16:50:00,
2013-10-08 12:55:00,59.2,47.0,30.13,North,0,0.0,0.0,64,0.00,,---,0.00,VWS V14.01,2013-10-08 16:55:00,
2013-10-08 13:00:00,59.3,47.1,30.13,NNW,343,1.0,1.0,64,0.00,,---,0.00,VWS V14.01,2013-10-08 17:00:00,
2013-10-08 13:05:00,59.3,48.4,30.12,NNW,343,0.0,0.0,67,0.00,,---,0.00,VWS V14.01,2013-10-08 17:05:00,
2013-10-08 13:10:00,59.5,48.5,30.12,North,354,0.0,0.0,67,0.00,,---,0.00,VWS V14.01,2013-10-08 17:10:00,
2013-10-08 13:15:00,59.6,48.6,30.12,WNW,285,0.0,0.0,67,0.00,,---,0.00,VWS V14.01,2013-10-08 17:15:00,
2013-10-08 13:20:00,59.6,48.6,30.12,ENE,59,0.0,2.0,67,0.00,,---,0.00,VWS V14.01,2013-10-08 17:20:00,
2013-10-08 13:25:00,59.6,48.6,30.12,NE,42,0.0,0.0,67,0.00,,---,0.00,VWS V14.01,2013-10-08 17:25:00,
2013-10-08 13:30:00,59.6,48.6,30.12,North,354,0.0,3.0,67,0.00,,---,0.00,VWS V14.01,2013-10-08 17:30:00,
2013-10-08 13:35:00,59.6,48.6,30.11,NNW,332,5.0,5.0,67,0.00,,---,0.00,VWS V14.01,2013-10-08 17:35:00,
2013-10-08 13:40:00,59.8,48.8,30.11,NE,34,0.0,5.0,67,0.00,,---,0.00,VWS V14.01,2013-10-08 17:40:00,
2013-10-08 13:45:00,59.8,48.8,30.11,NNW,344,0.0,5.0,67,0.00,,---,0.00,VWS V14.01,2013-10-08 17:45:00,
2013-10-08 13:50:00,59.9,49.3,30.10,ENE,76,0.0,0.0,68,0.00,,---,0.00,VWS V14.01,2013-10-08 17:50:00,
2013-10-08 13:55:00,60.1,49.5,30.10,WNW,299,0.0,2.0,68,0.00,,---,0.00,VWS V14.01,2013-10-08 17:55:00,
2013-10-08 14:00:00,60.2,49.6,30.10,NNE,23,0.0,4.0,68,0.00,,---,0.00,VWS V14.01,2013-10-08 18:00:00,
2013-10-08 14:05:00,60.4,49.8,30.10,North,357,1.0,1.0,68,0.00,,---,0.00,VWS V14.01,2013-10-08 18:05:00,
2013-10-08 14:10:00,60.4,49.8,30.10,North,350,0.0,1.0,68,0.00,,---,0.00,VWS V14.01,2013-10-08 18:10:00,
2013-10-08 14:15:00,60.4,49.8,30.10,North,350,0.0,0.0,68,0.00,,---,0.00,VWS V14.01,2013-10-08 18:15:00,
2013-10-08 14:20:00,60.4,49.8,30.09,ENE,59,0.0,0.0,68,0.00,,---,0.00,VWS V14.01,2013-10-08 18:20:00,
2013-10-08 14:25:00,60.4,49.8,30.09,NNW,342,0.0,0.0,68,0.00,,---,0.00,VWS V14.01,2013-10-08 18:25:00,
2013-10-08 14:30:00,61.0,50.4,30.09,NW,312,0.0,0.0,68,0.00,,---,0.00,VWS V14.01,2013-10-08 18:30:00,
2013-10-08 14:35:00,60.7,50.1,30.10,NE,55,0.0,3.0,68,0.00,,---,0.00,VWS V14.01,2013-10-08 18:35:00,
2013-10-08 14:40:00,60.5,49.9,30.10,ENE,66,0.0,0.0,68,0.00,,---,0.00,VWS V14.01,2013-10-08 18:40:00,
2013-10-08 14:45:00,60.5,49.9,30.10,North,357,1.0,1.0,68,0.00,,---,0.00,VWS V14.01,2013-10-08 18:45:00,
2013-10-08 14:50:00,60.2,49.2,30.10,ENE,59,0.0,2.0,67,0.00,,---,0.00,VWS V14.01,2013-10-08 18:50:00,
2013-10-08 14:55:00,60.2,49.2,30.10,North,11,0.0,0.0,67,0.00,,---,0.00,VWS V14.01,2013-10-08 18:55:00,
2013-10-08 15:00:00,60.2,49.2,30.10,West,277,0.0,0.0,67,0.00,,---,0.00,VWS V14.01,2013-10-08 19:00:00,
2013-10-08 15:05:00,59.9,48.9,30.10,North,0,0.0,8.0,67,0.00,,---,0.00,VWS V14.01,2013-10-08 19:05:00,
2013-10-08 15:10:00,59.9,49.3,30.10,SE,136,3.0,3.0,68,0.00,,---,0.00,VWS V14.01,2013-10-08 19:10:00,
2013-10-08 15:15:00,60.1,49.5,30.10,North,0,0.0,3.0,68,0.00,,---,0.00,VWS V14.01,2013-10-08 19:15:00,
2013-10-08 15:20:00,60.1,49.5,30.10,NNW,333,0.0,0.0,68,0.00,,---,0.00,VWS V14.01,2013-10-08 19:20:00,
2013-10-08 15:25:00,60.1,49.5,30.10,NE,42,0.0,0.0,68,0.00,,---,0.00,VWS V14.01,2013-10-08 19:25:00,
2013-10-08 15:30:00,60.1,49.5,30.10,NE,48,0.0,0.0,68,0.00,,---,0.00,VWS V14.01,2013-10-08 19:30:00,
2013-10-08 15:35:00,60.2,49.6,30.10,NW,315,0.0,0.0,68,0.00,,---,0.00,VWS V14.01,2013-10-08 19:35:00,
2013-10-08 15:40:00,60.2,49.6,30.10,NNW,339,0.0,0.0,68,0.00,,---,0.00,VWS V14.01,2013-10-08 19:40:00,
2013-10-08 15:45:00,60.2,49.6,30.10,NW,323,0.0,3.0,68,0.00,,---,0.00,VWS V14.01,2013-10-08 19:45:00,
2013-10-08 15:50:00,60.1,49.5,30.10,WNW,292,1.0,1.0,68,0.00,,---,0.00,VWS V14.01,2013-10-08 19:50:00,
2013-10-08 15:55:00,60.1,49.5,30.10,NNW,339,0.0,0.0,68,0.00,,---,0.00,VWS V14.01,2013-10-08 19:55:00,
2013-10-08 16:00:00,60.1,49.5,30.10,NW,323,0.0,3.0,68,0.00,,---,0.00,VWS V14.01,2013-10-08 20:00:00,
2013-10-08 16:05:00,60.1,49.5,30.10,NW,325,0.0,0.0,68,0.00,,---,0.00,VWS V14.01,2013-10-08 20:05:00,
2013-10-08 16:10:00,60.1,49.9,30.10,NE,37,0.0,0.0,69,0.00,,---,0.00,VWS V14.01,2013-10-08 20:10:00,
2013-10-08 16:15:00,60.1,49.9,30.10,NW,325,0.0,0.0,69,0.00,,---,0.00,VWS V14.01,2013-10-08 20:15:00,
2013-10-08 16:20:00,59.9,50.1,30.10,NE,54,0.0,0.0,70,0.00,,---,0.00,VWS V14.01,2013-10-08 20:20:00,
2013-10-08 16:25:00,59.9,50.1,30.10,North,0,0.0,1.0,70,0.00,,---,0.00,VWS V14.01,2013-10-08 20:25:00,
2013-10-08 16:30:00,59.8,50.0,30.10,WNW,302,0.0,2.0,70,0.00,,---,0.00,VWS V14.01,2013-10-08 20:30:00,
2013-10-08 16:35:00,59.8,50.0,30.11,North,7,0.0,3.0,70,0.00,,---,0.00,VWS V14.01,2013-10-08 20:35:00,
2013-10-08 16:40:00,59.6,49.8,30.11,NNE,24,0.0,0.0,70,0.00,,---,0.00,VWS V14.01,2013-10-08 20:40:00,
2013-10-08 16:45:00,59.6,49.4,30.11,North,352,0.0,3.0,69,0.00,,---,0.00,VWS V14.01,2013-10-08 20:45:00,
2013-10-08 16:50:00,59.6,49.4,30.11,East,79,0.0,0.0,69,0.00,,---,0.00,VWS V14.01,2013-10-08 20:50:00,
2013-10-08 16:55:00,59.6,50.2,30.11,NE,48,1.0,2.0,71,0.00,,---,0.00,VWS V14.01,2013-10-08 20:55:00,
2013-10-08 17:00:00,59.6,49.8,30.11,North,0,0.0,0.0,70,0.00,,---,0.00,VWS V14.01,2013-10-08 21:00:00,
2013-10-08 17:05:00,59.5,49.7,30.11,North,0,0.0,4.0,70,0.00,,---,0.00,VWS V14.01,2013-10-08 21:05:00,
2013-10-08 17:10:00,59.5,49.7,30.11,NW,320,0.0,0.0,70,0.00,,---,0.00,VWS V14.01,2013-10-08 21:10:00,
2013-10-08 17:15:00,59.5,50.1,30.11,NNE,27,3.0,3.0,71,0.00,,---,0.00,VWS V14.01,2013-10-08 21:15:00,
2013-10-08 17:20:00,59.5,50.1,30.11,NW,309,0.0,2.0,71,0.00,,---,0.00,VWS V14.01,2013-10-08 21:20:00,
2013-10-08 17:25:00,59.5,50.1,30.11,NW,309,0.0,3.0,71,0.00,,---,0.00,VWS V14.01,2013-10-08 21:25:00,
2013-10-08 17:30:00,59.2,49.8,30.11,NE,41,0.0,1.0,71,0.00,,---,0.00,VWS V14.01,2013-10-08 21:30:00,
2013-10-08 17:35:00,59.0,49.6,30.11,NE,41,0.0,0.0,71,0.00,,---,0.00,VWS V14.01,2013-10-08 21:35:00,
2013-10-08 17:40:00,58.9,49.2,30.11,NNW,344,0.0,1.0,70,0.00,,---,0.00,VWS V14.01,2013-10-08 21:40:00,
2013-10-08 17:45:00,58.9,49.5,30.11,North,3,0.0,2.0,71,0.00,,---,0.00,VWS V14.01,2013-10-08 21:45:00,
2013-10-08 17:50:00,58.9,49.5,30.12,North,3,0.0,0.0,71,0.00,,---,0.00,VWS V14.01,2013-10-08 21:50:00,
2013-10-08 17:55:00,58.9,49.5,30.12,WNW,295,0.0,0.0,71,0.00,,---,0.00,VWS V14.01,2013-10-08 21:55:00,
2013-10-08 18:00:00,58.7,49.3,30.12,NNE,13,0.0,0.0,71,0.00,,---,0.00,VWS V14.01,2013-10-08 22:00:00,
2013-10-08 18:05:00,58.9,49.5,30.12,NE,44,0.0,0.0,71,0.00,,---,0.00,VWS V14.01,2013-10-08 22:05:00,
2013-10-08 18:10:00,58.7,49.3,30.12,North,349,0.0,0.0,71,0.00,,---,0.00,VWS V14.01,2013-10-08 22:10:00,
2013-10-08 18:15:00,58.6,49.2,30.12,North,350,0.0,3.0,71,0.00,,---,0.00,VWS V14.01,2013-10-08 22:15:00,
2013-10-08 18:20:00,58.6,49.6,30.12,North,0,0.0,0.0,72,0.00,,---,0.00,VWS V14.01,2013-10-08 22:20:00,
2013-10-08 18:25:00,58.4,49.8,30.12,North,349,0.0,0.0,73,0.00,,---,0.00,VWS V14.01,2013-10-08 22:25:00,
2013-10-08 18:30:00,58.4,49.8,30.12,NNE,24,0.0,0.0,73,0.00,,---,0.00,VWS V14.01,2013-10-08 22:30:00,
2013-10-08 18:35:00,58.1,50.2,30.13,East,93,0.0,0.0,75,0.00,,---,0.00,VWS V14.01,2013-10-08 22:35:00,
2013-10-08 18:40:00,57.8,49.6,30.13,NE,55,0.0,2.0,74,0.00,,---,0.00,VWS V14.01,2013-10-08 22:40:00,
2013-10-08 18:45:00,57.6,49.4,30.13,ENE,58,0.0,0.0,74,0.00,,---,0.00,VWS V14.01,2013-10-08 22:45:00,
2013-10-08 18:50:00,57.8,49.6,30.12,ENE,59,0.0,0.0,74,0.00,,---,0.00,VWS V14.01,2013-10-08 22:50:00,
2013-10-08 18:55:00,57.8,50.7,30.12,ENE,61,0.0,0.0,77,0.00,,---,0.00,VWS V14.01,2013-10-08 22:55:00,
2013-10-08 19:00:00,57.6,49.8,30.12,ENE,61,0.0,0.0,75,0.00,,---,0.00,VWS V14.01,2013-10-08 23:00:00,
2013-10-08 19:05:00,57.6,49.8,30.13,ENE,58,0.0,0.0,75,0.00,,---,0.00,VWS V14.01,2013-10-08 23:05:00,
2013-10-08 19:10:00,57.6,49.8,30.13,NNE,17,0.0,1.0,75,0.00,,---,0.00,VWS V14.01,2013-10-08 23:10:00,
2013-10-08 19:15:00,57.5,49.7,30.13,NNE,16,0.0,0.0,75,0.00,,---,0.00,VWS V14.01,2013-10-08 23:15:00,
2013-10-08 19:20:00,57.5,48.9,30.14,North,4,0.0,0.0,73,0.00,,---,0.00,VWS V14.01,2013-10-08 23:20:00,
2013-10-08 19:25:00,57.3,49.8,30.14,NE,55,0.0,0.0,76,0.00,,---,0.00,VWS V14.01,2013-10-08 23:25:00,
2013-10-08 19:30:00,57.2,50.1,30.14,NNW,343,4.0,4.0,77,0.00,,---,0.00,VWS V14.01,2013-10-08 23:30:00,
2013-10-08 19:35:00,56.9,49.8,30.14,NW,322,0.0,1.0,77,0.00,,---,0.00,VWS V14.01,2013-10-08 23:35:00,
2013-10-08 19:40:00,56.7,49.2,30.14,NNW,335,0.0,0.0,76,0.00,,---,0.00,VWS V14.01,2013-10-08 23:40:00,
2013-10-08 19:45:00,56.7,49.2,30.14,NNW,335,0.0,0.0,76,0.00,,---,0.00,VWS V14.01,2013-10-08 23:45:00,
2013-10-08 19:50:00,56.9,49.4,30.14,NE,49,0.0,0.0,76,0.00,,---,0.00,VWS V14.01,2013-10-08 23:50:00,
2013-10-08 19:55:00,56.9,49.4,30.14,NE,41,0.0,0.0,76,0.00,,---,0.00,VWS V14.01,2013-10-08 23:55:00,
2013-10-08 20:00:00,56.9,49.4,30.14,North,349,0.0,0.0,76,0.00,,---,0.00,VWS V14.01,2013-10-09 00:00:00,
2013-10-08 20:05:00,57.0,49.5,30.13,North,0,1.0,2.0,76,0.00,,---,0.00,VWS V14.01,2013-10-09 00:05:00,
2013-10-08 20:10:00,57.0,48.8,30.13,NNW,344,0.0,0.0,74,0.00,,---,0.00,VWS V14.01,2013-10-09 00:10:00,
2013-10-08 20:15:00,57.2,49.0,30.13,WNW,301,0.0,1.0,74,0.00,,---,0.00,VWS V14.01,2013-10-09 00:15:00,
2013-10-08 20:20:00,57.2,49.0,30.13,NW,305,0.0,7.0,74,0.00,,---,0.00,VWS V14.01,2013-10-09 00:20:00,
2013-10-08 20:25:00,57.3,48.7,30.13,NNW,329,0.0,1.0,73,0.00,,---,0.00,VWS V14.01,2013-10-09 00:25:00,
2013-10-08 20:30:00,57.5,48.9,30.13,NNW,335,0.0,0.0,73,0.00,,---,0.00,VWS V14.01,2013-10-09 00:30:00,
2013-10-08 20:35:00,57.5,48.9,30.14,NNW,337,0.0,0.0,73,0.00,,---,0.00,VWS V14.01,2013-10-09 00:35:00,
2013-10-08 20:40:00,57.5,48.9,30.14,NNW,335,0.0,0.0,73,0.00,,---,0.00,VWS V14.01,2013-10-09 00:40:00,
2013-10-08 20:45:00,57.5,48.6,30.14,NE,34,0.0,2.0,72,0.00,,---,0.00,VWS V14.01,2013-10-09 00:45:00,
2013-10-08 20:50:00,57.6,48.3,30.14,NNW,329,0.0,1.0,71,0.00,,---,0.00,VWS V14.01,2013-10-09 00:50:00,
2013-10-08 20:55:00,57.6,48.3,30.14,NE,56,0.0,1.0,71,0.00,,---,0.00,VWS V14.01,2013-10-09 00:55:00,
2013-10-08 21:00:00,57.6,48.3,30.14,ENE,69,0.0,0.0,71,0.00,,---,0.00,VWS V14.01,2013-10-09 01:00:00,
2013-10-08 21:05:00,57.6,48.3,30.14,NNW,340,0.0,0.0,71,0.00,,---,0.00,VWS V14.01,2013-10-09 01:05:00,
2013-10-08 21:10:00,57.8,48.5,30.14,NNW,340,0.0,2.0,71,0.00,,---,0.00,VWS V14.01,2013-10-09 01:10:00,
2013-10-08 21:15:00,58.0,47.9,30.14,NNE,17,0.0,3.0,69,0.00,,---,0.00,VWS V14.01,2013-10-09 01:15:00,
2013-10-08 21:20:00,58.0,47.9,30.14,North,354,0.0,1.0,69,0.00,,---,0.00,VWS V14.01,2013-10-09 01:20:00,
2013-10-08 21:25:00,58.0,48.3,30.14,North,350,0.0,0.0,70,0.00,,---,0.00,VWS V14.01,2013-10-09 01:25:00,
2013-10-08 21:30:00,58.0,48.3,30.14,NNW,335,0.0,6.0,70,0.00,,---,0.00,VWS V14.01,2013-10-09 01:30:00,
2013-10-08 21:35:00,58.0,47.9,30.15,NE,44,0.0,3.0,69,0.00,,---,0.00,VWS V14.01,2013-10-09 01:35:00,
2013-10-08 21:40:00,58.0,47.9,30.15,ENE,78,0.0,1.0,69,0.00,,---,0.00,VWS V14.01,2013-10-09 01:40:00,
2013-10-08 21:45:00,58.1,48.0,30.15,NNW,328,0.0,0.0,69,0.00,,---,0.00,VWS V14.01,2013-10-09 01:45:00,
2013-10-08 21:50:00,58.0,47.9,30.15,NNW,328,0.0,0.0,69,0.00,,---,0.00,VWS V14.01,2013-10-09 01:50:00,
2013-10-08 21:55:00,58.0,48.3,30.15,NE,41,0.0,1.0,70,0.00,,---,0.00,VWS V14.01,2013-10-09 01:55:00,
2013-10-08 22:00:00,58.0,47.9,30.15,NNW,339,0.0,3.0,69,0.00,,---,0.00,VWS V14.01,2013-10-09 02:00:00,
2013-10-08 22:05:00,58.1,48.4,30.14,NNW,339,0.0,0.0,70,0.00,,---,0.00,VWS V14.01,2013-10-09 02:05:00,
2013-10-08 22:10:00,58.0,48.3,30.14,NW,320,0.0,5.0,70,0.00,,---,0.00,VWS V14.01,2013-10-09 02:10:00,
2013-10-08 22:15:00,58.0,47.9,30.14,NNW,335,0.0,2.0,69,0.00,,---,0.00,VWS V14.01,2013-10-09 02:15:00,
2013-10-08 22:20:00,58.1,48.4,30.14,NNW,329,0.0,6.0,70,0.00,,---,0.00,VWS V14.01,2013-10-09 02:20:00,
2013-10-08 22:25:00,58.0,48.3,30.14,NNW,337,0.0,1.0,70,0.00,,---,0.00,VWS V14.01,2013-10-09 02:25:00,
2013-10-08 22:30:00,58.1,48.4,30.14,NE,45,0.0,0.0,70,0.00,,---,0.00,VWS V14.01,2013-10-09 02:30:00,
2013-10-08 22:35:00,58.1,48.8,30.14,NE,44,0.0,0.0,71,0.00,,---,0.00,VWS V14.01,2013-10-09 02:35:00,
2013-10-08 22:40:00,58.0,48.3,30.14,NNW,328,0.0,0.0,70,0.00,,---,0.00,VWS V14.01,2013-10-09 02:40:00,
2013-10-08 22:45:00,58.0,47.9,30.14,North,0,0.0,1.0,69,0.00,,---,0.00,VWS V14.01,2013-10-09 02:45:00,
2013-10-08 22:50:00,58.1,48.0,30.15,NNW,333,0.0,4.0,69,0.00,,---,0.00,VWS V14.01,2013-10-09 02:50:00,
2013-10-08 22:55:00,58.1,48.4,30.15,NNW,344,0.0,0.0,70,0.00,,---,0.00,VWS V14.01,2013-10-09 02:55:00,
2013-10-08 23:00:00,58.1,48.4,30.15,NNW,330,0.0,2.0,70,0.00,,---,0.00,VWS V14.01,2013-10-09 03:00:00,
2013-10-08 23:05:00,58.0,48.3,30.15,NNW,340,0.0,0.0,70,0.00,,---,0.00,VWS V14.01,2013-10-09 03:05:00,
2013-10-08 23:10:00,58.0,48.3,30.15,NNW,339,0.0,3.0,70,0.00,,---,0.00,VWS V14.01,2013-10-09 03:10:00,
2013-10-08 23:15:00,58.0,48.7,30.15,NE,51,0.0,2.0,71,0.00,,---,0.00,VWS V14.01,2013-10-09 03:15:00,
2013-10-08 23:20:00,58.0,48.3,30.14,NNW,340,0.0,0.0,70,0.00,,---,0.00,VWS V14.01,2013-10-09 03:20:00,
2013-10-08 23:25:00,58.0,48.7,30.14,North,0,0.0,3.0,71,0.00,,---,0.00,VWS V14.01,2013-10-09 03:25:00,
2013-10-08 23:30:00,58.0,48.3,30.14,NNW,332,0.0,3.0,70,0.00,,---,0.00,VWS V14.01,2013-10-09 03:30:00,
2013-10-08 23:35:00,58.0,48.7,30.14,NNW,347,0.0,5.0,71,0.00,,---,0.00,VWS V14.01,2013-10-09 03:35:00,
2013-10-08 23:40:00,58.0,48.7,30.14,NE,42,2.0,6.0,71,0.00,,---,0.00,VWS V14.01,2013-10-09 03:40:00,
2013-10-08 23:45:00,58.0,48.7,30.14,NW,322,0.0,0.0,71,0.00,,---,0.00,VWS V14.01,2013-10-09 03:45:00,
2013-10-08 23:50:00,58.0,48.7,30.14,NNW,344,0.0,2.0,71,0.00,,---,0.00,VWS V14.01,2013-10-09 03:50:00,
2013-10-08 23:55:00,58.0,48.7,30.14,NNE,23,0.0,6.0,71,0.00,,---,0.00,VWS V14.01,2013-10-09 03:55:00,